Location: Aracaju
(10.9167°S, 37.0667°W)
Time: 03:25:03
(UTC-03:00)

ISS - Visible Passes

Search period start: 23 August 2017 00:00
Search period end: 02 September 2017 00:00
Orbit: 401 x 408 km, 51.6° (Epoch: 23 August)

Date Brightness Start Highest point End Pass type
(mag) Time Alt. Az. Time Alt. Az. Time Alt. Az.
23 Aug -0.7 03:56:52 10° SSE 03:57:51 11° SE 03:58:50 10° ESE visible
23 Aug -1.0 18:47:13 10° W 18:49:11 15° SW 18:51:07 10° SSW visible
24 Aug -3.9 04:40:08 22° SW 04:42:05 74° NW 04:45:21 10° NNE visible
24 Aug -2.4 17:53:53 10° WNW 17:56:55 36° SW 17:59:58 10° SSE visible
25 Aug -1.7 03:50:59 27° E 03:50:59 27° E 03:52:56 10° ENE visible
26 Aug -1.9 04:34:33 17° NW 04:34:33 17° NW 04:36:14 10° N visible
26 Aug -0.7 17:47:56 10° WSW 17:48:53 11° SW 17:49:51 10° SSW visible
